This is the latest recevied weather packets stored in our database for station/object HA3YA-WX. If no packets are shown the sender has not sent any weather packets the latest 10 day(s).
| Time | Temp. | Humidity | Pressure | Rain* | Wind** | Luminosity | Snow |
|---|---|---|---|---|---|---|---|
| 1788357684 | 29.44° C | 58% | 1006 hPa | - | - | - | - |
| 1788357084 | 29.44° C | 62% | 1006 hPa | - | - | - | - |
| 1788356484 | 30° C | 61% | 1006 hPa | - | - | - | - |
| 1788355884 | 30.56° C | 59% | 1006 hPa | - | - | - | - |
| 1788355284 | 30.56° C | 59% | 1006.4 hPa | - | - | - | - |
| 1788354684 | 30° C | 58% | 1006.4 hPa | - | - | - | - |
| 1788354084 | 30° C | 63% | 1006 hPa | - | - | - | - |
| 1788352885 | 28.89° C | 65% | 1007 hPa | - | - | - | - |
| 1788352284 | 29.44° C | 65% | 1007 hPa | - | - | - | - |
| 1788351684 | 29.44° C | 65% | 1007.2 hPa | - | - | - | - |
| 1788351084 | 28.89° C | 66% | 1007 hPa | - | - | - | - |
| 1788348684 | 28.33° C | 67% | 1007 hPa | - | - | - | - |
| 1788348084 | 27.78° C | 66% | 1007 hPa | - | - | - | - |
| 1788347484 | 27.78° C | 66% | 1008 hPa | - | - | - | - |
| 1788346884 | 27.78° C | 67% | 1008 hPa | - | - | - | - |
| 1788346285 | 27.22° C | 68% | 1008 hPa | - | - | - | - |
| 1788345684 | 26.67° C | 68% | 1008 hPa | - | - | - | - |
| 1788345084 | 26.11° C | 69% | 1008.6 hPa | - | - | - | - |
| 1788344484 | 26.11° C | 70% | 1008 hPa | - | - | - | - |
| 1788343884 | 26.11° C | 69% | 1008 hPa | - | - | - | - |
| 1788343284 | 26.67° C | 67% | 1008 hPa | - | - | - | - |
| 1788342684 | 26.11° C | 69% | 1008 hPa | - | - | - | - |
| 1788342084 | 25.56° C | 69% | 1009 hPa | - | - | - | - |
| 1788341484 | 25.56° C | 69% | 1009 hPa | - | - | - | - |
| 1788340884 | 25.56° C | 70% | 1009.1 hPa | - | - | - | - |
* Rain since midnight (hover to see other rain measurements)
** Current wind speed in m/s (hover to see current wind gust speed)